| time (UTC) | temp F | wind direction | speed MPH | gust MPH | rain 1hr in | rain 24hr in | rain mn in | humidity % | barometer mb |
| 20260902045306 | 75 | 173 | 0.0 | 0.0 | 0.00 | 0.00 | 0.00 | 100 | 975.7 |
| 20260902044629 | 75 | 173 | 0.0 | 0.0 | 0.00 | 0.00 | 0.00 | 100 | 975.8 |
| 20260902044142 | 75 | 173 | 0.0 | 0.0 | 0.00 | 0.00 | 0.00 | 100 | 976.0 |
| 20260902043949 | 75 | 173 | 0.0 | 0.0 | 0.00 | 0.00 | 0.00 | 100 | 976.0 |
| 20260902042631 | 75 | 173 | 0.0 | 0.0 | 0.00 | 0.00 | 0.00 | 100 | 976.1 |
| 20260902040635 | 75 | 173 | 0.0 | 0.0 | 0.00 | 0.00 | 0.00 | 100 | 975.9 |
| 20260902035954 | 75 | 173 | 0.0 | 0.0 | 0.00 | 0.00 | 0.00 | 100 | 975.7 |
| 20260902035317 | 76 | 173 | 0.0 | 0.0 | 0.00 | 0.03 | 0.00 | 100 | 975.7 |
| 20260902034637 | 76 | 173 | 0.0 | 0.0 | 0.00 | 0.03 | 0.00 | 100 | 975.8 |
| 20260902034000 | 76 | 173 | 0.0 | 0.0 | 0.00 | 0.03 | 0.00 | 100 | 976.0 |
| 20260902032118 | 76 | 173 | 0.0 | 0.0 | 0.00 | 0.03 | 0.00 | 100 | 975.9 |
| 20260902032001 | 76 | 173 | 0.0 | 0.0 | 0.00 | 0.03 | 0.00 | 100 | 975.9 |
| 20260902031444 | 76 | 173 | 0.0 | 0.0 | 0.00 | 0.03 | 0.00 | 100 | 976.1 |
| 20260902031324 | 76 | 173 | 0.0 | 0.0 | 0.00 | 0.03 | 0.00 | 100 | 976.1 |
| 20260902030644 | 76 | 173 | 0.0 | 0.0 | 0.00 | 0.03 | 0.00 | 100 | 976.1 |
| 20260902030006 | 76 | 173 | 0.0 | 0.0 | 0.00 | 0.03 | 0.00 | 100 | 976.1 |
| 20260902025441 | 76 | 173 | 0.0 | 0.0 | 0.00 | 0.03 | 0.00 | 100 | 976.2 |
| 20260902025327 | 76 | 173 | 0.0 | 0.0 | 0.00 | 0.03 | 0.00 | 100 | 976.2 |
| 20260902024649 | 77 | 173 | 0.0 | 0.0 | 0.00 | 0.03 | 0.00 | 100 | 976.2 |
| 20260902023548 | 77 | 173 | 0.0 | 0.0 | 0.00 | 0.03 | 0.00 | 100 | 976.0 |
| 20260902023332 | 77 | 173 | 0.0 | 0.0 | 0.00 | 0.03 | 0.00 | 100 | 976.0 |
| 20260902022802 | 77 | 173 | 0.0 | 0.0 | 0.00 | 0.03 | 0.00 | 100 | 976.1 |
| 20260902022651 | 77 | 173 | 0.0 | 0.0 | 0.00 | 0.03 | 0.00 | 100 | 976.1 |
| 20260902022013 | 77 | 173 | 0.0 | 0.0 | 0.00 | 0.03 | 0.00 | 100 | 976.0 |
| 20260902021334 | 77 | 173 | 0.0 | 0.0 | 0.00 | 0.03 | 0.00 | 100 | 976.2 |
| 20260902020016 | 78 | 173 | 0.0 | 0.0 | 0.00 | 0.03 | 0.00 | 100 | 976.0 |
| 20260902015339 | 78 | 173 | 0.0 | 0.0 | 0.00 | 0.03 | 0.00 | 100 | 976.0 |
| 20260902014658 | 78 | 173 | 0.0 | 0.0 | 0.00 | 0.03 | 0.00 | 100 | 976.0 |
| 20260902014021 | 78 | 173 | 0.0 | 0.0 | 0.00 | 0.03 | 0.00 | 100 | 975.9 |
| 20260902012703 | 78 | 173 | 0.0 | 0.0 | 0.00 | 0.03 | 0.00 | 100 | 976.0 |
| 20260902011345 | 79 | 173 | 0.0 | 0.0 | 0.00 | 0.03 | 0.00 | 100 | 975.8 |
| 20260902010028 | 79 | 173 | 0.0 | 0.0 | 0.00 | 0.03 | 0.00 | 100 | 975.4 |
| 20260902005347 | 79 | 173 | 0.0 | 0.0 | 0.00 | 0.03 | 0.00 | 100 | 975.3 |
| 20260902004808 | 79 | 173 | 0.0 | 0.0 | 0.00 | 0.03 | 0.00 | 99 | 975.4 |
| 20260902004710 | 79 | 173 | 0.0 | 0.0 | 0.00 | 0.03 | 0.00 | 99 | 975.4 |
| 20260902003533 | 80 | 173 | 0.0 | 0.0 | 0.00 | 0.03 | 0.00 | 98 | 975.4 |
| 20260902003352 | 80 | 173 | 0.0 | 0.0 | 0.00 | 0.03 | 0.00 | 98 | 975.4 |
| 20260902002155 | 80 | 217 | 3.0 | 3.0 | 0.00 | 0.03 | 0.00 | 98 | 975.5 |
| 20260902002034 | 80 | 217 | 3.0 | 3.0 | 0.00 | 0.03 | 0.00 | 98 | 975.5 |
| 20260902000859 | 81 | 191 | 6.0 | 6.0 | 0.00 | 0.03 | 0.00 | 96 | 975.3 |
| 20260902000716 | 81 | 191 | 6.0 | 6.0 | 0.00 | 0.03 | 0.00 | 96 | 975.3 |
| 20260902000149 | 81 | 146 | 5.0 | 1.0 | 0.00 | 0.03 | 0.00 | 96 | 975.2 |
| 20260902000035 | 81 | 146 | 5.0 | 1.0 | 0.00 | 0.03 | 0.00 | 96 | 975.2 |
| 20260901235358 | 81 | 198 | 3.0 | 0.0 | 0.00 | 0.03 | 0.00 | 95 | 975.1 |
| 20260901234717 | 82 | 183 | 4.0 | 3.0 | 0.00 | 0.03 | 0.00 | 94 | 975.1 |
| 20260901234251 | 82 | 245 | 6.0 | 6.0 | 0.00 | 0.03 | 0.00 | 92 | 975.0 |
| 20260901234040 | 82 | 245 | 6.0 | 6.0 | 0.00 | 0.03 | 0.00 | 92 | 975.0 |
| 20260901233639 | 83 | 198 | 5.0 | 3.0 | 0.00 | 0.03 | 0.00 | 91 | 974.8 |
| 20260901233359 | 83 | 198 | 5.0 | 3.0 | 0.00 | 0.03 | 0.00 | 91 | 974.8 |
| 20260901232722 | 83 | 208 | 4.0 | 5.0 | 0.00 | 0.03 | 0.00 | 90 | 974.8 |
| 20260901232041 | 83 | 218 | 5.0 | 4.0 | 0.00 | 0.03 | 0.00 | 90 | 974.8 |
| 20260901231404 | 83 | 198 | 6.0 | 2.0 | 0.00 | 0.03 | 0.00 | 88 | 974.7 |
| 20260901225613 | 84 | 205 | 4.0 | 3.0 | 0.00 | 0.03 | 0.00 | 86 | 974.6 |
| 20260901225405 | 84 | 205 | 4.0 | 3.0 | 0.00 | 0.03 | 0.00 | 86 | 974.6 |
| 20260901224959 | 84 | 218 | 2.0 | 6.0 | 0.00 | 0.03 | 0.00 | 85 | 974.5 |
| 20260901224728 | 84 | 218 | 2.0 | 6.0 | 0.00 | 0.03 | 0.00 | 85 | 974.5 |
| 20260901224243 | 84 | 245 | 6.0 | 3.0 | 0.00 | 0.03 | 0.00 | 82 | 974.5 |
| 20260901224047 | 84 | 245 | 6.0 | 3.0 | 0.00 | 0.03 | 0.00 | 82 | 974.5 |
| 20260901223805 | 84 | 270 | 6.0 | 5.0 | 0.00 | 0.03 | 0.00 | 83 | 974.4 |
| 20260901223410 | 84 | 270 | 6.0 | 5.0 | 0.00 | 0.03 | 0.00 | 83 | 974.4 |
| 20260901223001 | 85 | 221 | 4.0 | 3.0 | 0.00 | 0.03 | 0.00 | 81 | 974.4 |
| 20260901222729 | 85 | 221 | 4.0 | 3.0 | 0.00 | 0.03 | 0.00 | 81 | 974.4 |
| 20260901222222 | 85 | 203 | 5.0 | 7.0 | 0.00 | 0.03 | 0.00 | 78 | 974.5 |
| 20260901222052 | 85 | 203 | 5.0 | 7.0 | 0.00 | 0.03 | 0.00 | 78 | 974.5 |
| 20260901221411 | 85 | 180 | 5.0 | 0.0 | 0.00 | 0.03 | 0.00 | 78 | 974.5 |
| 20260901221007 | 86 | 212 | 5.0 | 3.0 | 0.00 | 0.03 | 0.00 | 76 | 974.5 |
| 20260901220734 | 86 | 212 | 5.0 | 3.0 | 0.00 | 0.03 | 0.00 | 76 | 974.5 |
| 20260901215650 | 86 | 170 | 4.0 | 0.0 | 0.00 | 0.03 | 0.00 | 77 | 974.2 |
| 20260901215416 | 86 | 170 | 4.0 | 0.0 | 0.00 | 0.03 | 0.00 | 77 | 974.2 |
| 20260901215121 | 86 | 214 | 7.0 | 6.0 | 0.00 | 0.03 | 0.00 | 77 | 974.3 |
| 20260901214735 | 86 | 214 | 7.0 | 6.0 | 0.00 | 0.03 | 0.00 | 77 | 974.3 |
| 20260901214243 | 86 | 212 | 8.0 | 8.0 | 0.00 | 0.03 | 0.00 | 76 | 974.2 |
| 20260901214058 | 86 | 212 | 8.0 | 8.0 | 0.00 | 0.03 | 0.00 | 76 | 974.2 |
| 20260901213417 | 87 | 210 | 8.0 | 7.0 | 0.00 | 0.03 | 0.00 | 76 | 974.2 |
| 20260901213038 | 87 | 210 | 4.0 | 13.0 | 0.00 | 0.03 | 0.00 | 76 | 974.0 |
| 20260901212740 | 87 | 210 | 4.0 | 13.0 | 0.00 | 0.03 | 0.00 | 76 | 974.0 |
| 20260901212634 | 87 | 183 | 5.0 | 6.0 | 0.00 | 0.03 | 0.00 | 73 | 974.0 |
| 20260901212059 | 87 | 183 | 5.0 | 6.0 | 0.00 | 0.03 | 0.00 | 73 | 974.0 |
| 20260901211657 | 87 | 190 | 6.0 | 7.0 | 0.00 | 0.03 | 0.00 | 71 | 974.0 |
| 20260901211422 | 87 | 190 | 6.0 | 7.0 | 0.00 | 0.03 | 0.00 | 71 | 974.0 |
| 20260901210933 | 87 | 167 | 5.0 | 5.0 | 0.00 | 0.03 | 0.00 | 71 | 973.8 |
| 20260901210741 | 87 | 167 | 5.0 | 5.0 | 0.00 | 0.03 | 0.00 | 71 | 973.8 |
| 20260901210001 | 88 | 219 | 7.0 | 5.0 | 0.00 | 0.03 | 0.00 | 67 | 974.0 |
| 20260901205424 | 88 | 219 | 7.0 | 5.0 | 0.00 | 0.03 | 0.00 | 67 | 974.0 |
| 20260901204746 | 88 | 165 | 9.0 | 9.0 | 0.00 | 0.03 | 0.00 | 66 | 973.8 |
| 20260901204244 | 88 | 231 | 7.0 | 7.0 | 0.00 | 0.03 | 0.00 | 65 | 973.9 |
| 20260901204106 | 88 | 231 | 7.0 | 7.0 | 0.00 | 0.03 | 0.00 | 65 | 973.9 |
| 20260901203659 | 88 | 245 | 7.0 | 6.0 | 0.00 | 0.03 | 0.00 | 65 | 973.9 |
| 20260901203428 | 88 | 245 | 7.0 | 6.0 | 0.00 | 0.03 | 0.00 | 65 | 973.9 |
| 20260901202748 | 88 | 242 | 5.0 | 0.0 | 0.00 | 0.03 | 0.00 | 66 | 973.8 |
| 20260901202110 | 88 | 222 | 5.0 | 4.0 | 0.00 | 0.03 | 0.00 | 66 | 973.8 |
| 20260901201430 | 89 | 197 | 7.0 | 11.0 | 0.00 | 0.03 | 0.00 | 66 | 973.9 |
| 20260901200753 | 89 | 221 | 8.0 | 11.0 | 0.00 | 0.03 | 0.00 | 65 | 974.0 |
| 20260901200112 | 89 | 200 | 7.0 | 3.0 | 0.00 | 0.03 | 0.00 | 66 | 974.0 |
| 20260901195435 | 89 | 195 | 7.0 | 3.0 | 0.00 | 0.03 | 0.00 | 65 | 974.0 |
| 20260901194754 | 89 | 158 | 5.0 | 5.0 | 0.00 | 0.03 | 0.00 | 68 | 973.9 |
| 20260901194117 | 89 | 194 | 2.0 | 4.0 | 0.00 | 0.03 | 0.00 | 66 | 974.0 |
| 20260901193436 | 89 | 219 | 7.0 | 6.0 | 0.00 | 0.03 | 0.00 | 67 | 974.2 |
| 20260901192759 | 88 | 179 | 2.0 | 7.0 | 0.00 | 0.03 | 0.00 | 67 | 974.4 |
| 20260901192118 | 88 | 259 | 4.0 | 4.0 | 0.00 | 0.03 | 0.00 | 72 | 974.4 |
| 20260901191441 | 87 | 284 | 9.0 | 5.0 | 0.00 | 0.03 | 0.00 | 71 | 974.5 |
| 20260901190801 | 87 | 239 | 7.0 | 4.0 | 0.00 | 0.03 | 0.00 | 73 | 974.5 |
| 20260901190123 | 87 | 243 | 5.0 | 0.0 | 0.00 | 0.03 | 0.00 | 74 | 974.4 |
| 20260901185443 | 87 | 207 | 6.0 | 2.0 | 0.00 | 0.03 | 0.00 | 72 | 974.5 |
| 20260901184806 | 88 | 245 | 4.0 | 6.0 | 0.00 | 0.03 | 0.00 | 71 | 974.5 |
| 20260901183448 | 87 | 160 | 0.0 | 9.0 | 0.00 | 0.03 | 0.00 | 77 | 974.6 |
| 20260901182807 | 86 | 240 | 7.0 | 3.0 | 0.00 | 0.03 | 0.00 | 77 | 974.6 |
| 20260901182130 | 86 | 177 | 8.0 | 7.0 | 0.00 | 0.03 | 0.00 | 78 | 974.6 |
| 20260901181449 | 86 | 236 | 1.0 | 0.0 | 0.00 | 0.03 | 0.00 | 79 | 974.7 |
| 20260901180812 | 86 | 197 | 6.0 | 0.0 | 0.00 | 0.03 | 0.00 | 80 | 974.7 |
| 20260901180132 | 86 | 194 | 6.0 | 6.0 | 0.00 | 0.03 | 0.00 | 78 | 974.7 |
| 20260901175455 | 86 | 188 | 6.0 | 5.0 | 0.00 | 0.03 | 0.00 | 78 | 974.7 |
| 20260901174814 | 86 | 304 | 5.0 | 6.0 | 0.00 | 0.03 | 0.00 | 81 | 974.9 |
| 20260901174137 | 85 | 184 | 2.0 | 6.0 | 0.00 | 0.03 | 0.00 | 85 | 974.8 |
| 20260901173456 | 84 | 194 | 4.0 | 5.0 | 0.00 | 0.03 | 0.00 | 84 | 974.9 |
| 20260901172819 | 85 | 245 | 6.0 | 5.0 | 0.00 | 0.03 | 0.00 | 84 | 974.9 |
| 20260901172139 | 85 | 219 | 4.0 | 3.0 | 0.00 | 0.03 | 0.00 | 82 | 974.9 |
| 20260901171501 | 85 | 214 | 6.0 | 6.0 | 0.00 | 0.03 | 0.00 | 83 | 974.8 |
| 20260901170821 | 85 | 262 | 3.0 | 5.0 | 0.00 | 0.03 | 0.00 | 86 | 974.8 |
| 20260901170144 | 85 | 205 | 5.0 | 5.0 | 0.00 | 0.03 | 0.00 | 86 | 975.0 |
| 20260901165503 | 84 | 180 | 6.0 | 9.0 | 0.00 | 0.03 | 0.00 | 88 | 975.0 |
| 20260901164826 | 83 | 228 | 9.0 | 7.0 | 0.00 | 0.03 | 0.00 | 90 | 975.2 |
| 20260901164146 | 83 | 277 | 4.0 | 5.0 | 0.00 | 0.03 | 0.00 | 91 | 975.1 |
| 20260901163509 | 83 | 153 | 6.0 | 3.0 | 0.00 | 0.03 | 0.00 | 92 | 975.2 |
| 20260901162828 | 82 | 132 | 5.0 | 8.0 | 0.00 | 0.03 | 0.00 | 92 | 975.2 |
| 20260901162151 | 82 | 231 | 3.0 | 5.0 | 0.00 | 0.03 | 0.00 | 94 | 975.3 |
| 20260901161511 | 82 | 176 | 7.0 | 9.0 | 0.00 | 0.03 | 0.00 | 93 | 975.3 |
| 20260901160834 | 81 | 173 | 4.0 | 5.0 | 0.00 | 0.03 | 0.00 | 94 | 975.3 |
| 20260901160153 | 81 | 172 | 3.0 | 3.0 | 0.00 | 0.03 | 0.00 | 95 | 975.1 |
| 20260901155516 | 80 | 128 | 3.0 | 5.0 | 0.00 | 0.03 | 0.00 | 97 | 975.3 |
| 20260901154835 | 80 | 186 | 0.0 | 6.0 | 0.00 | 0.03 | 0.00 | 97 | 975.2 |
| 20260901154158 | 80 | 194 | 5.0 | 5.0 | 0.00 | 0.03 | 0.00 | 98 | 975.3 |
| 20260901153518 | 79 | 149 | 4.0 | 0.0 | 0.00 | 0.03 | 0.00 | 100 | 975.3 |
| 20260901152841 | 79 | 98 | 0.0 | 0.0 | 0.00 | 0.03 | 0.00 | 100 | 975.4 |
| 20260901151523 | 77 | 122 | 0.0 | 0.0 | 0.00 | 0.03 | 0.00 | 100 | 975.7 |
| 20260901150843 | 77 | 122 | 0.0 | 0.0 | 0.00 | 0.03 | 0.00 | 100 | 975.7 |
| 20260901150206 | 76 | 122 | 0.0 | 0.0 | 0.00 | 0.03 | 0.00 | 100 | 975.8 |
| 20260901145526 | 76 | 122 | 0.0 | 0.0 | 0.00 | 0.03 | 0.00 | 100 | 976.0 |
| 20260901144849 | 75 | 131 | 0.0 | 0.0 | 0.00 | 0.03 | 0.00 | 100 | 976.0 |
| 20260901144207 | 74 | 131 | 0.0 | 0.0 | 0.00 | 0.03 | 0.00 | 100 | 976.3 |
| 20260901142851 | 73 | 131 | 0.0 | 0.0 | 0.00 | 0.03 | 0.00 | 100 | 976.6 |
| 20260901134857 | 72 | 197 | 0.0 | 0.0 | 0.00 | 0.03 | 0.00 | 100 | 977.0 |
| 20260901134221 | 72 | 197 | 0.0 | 0.0 | 0.00 | 0.03 | 0.00 | 100 | 976.9 |
| 20260901133540 | 72 | 197 | 0.0 | 0.0 | 0.00 | 0.03 | 0.00 | 100 | 976.8 |
| 20260901130906 | 71 | 359 | 0.0 | 0.0 | 0.00 | 0.03 | 0.00 | 100 | 976.9 |
| 20260901130228 | 71 | 359 | 0.0 | 0.0 | 0.00 | 0.03 | 0.00 | 100 | 976.9 |
| 20260901124912 | 70 | 359 | 0.0 | 0.0 | 0.00 | 0.03 | 0.00 | 100 | 977.0 |
| 20260901124231 | 70 | 359 | 0.0 | 0.0 | 0.00 | 0.03 | 0.00 | 100 | 976.9 |
| 20260901120919 | 70 | 359 | 0.0 | 0.0 | 0.00 | 0.03 | 0.00 | 100 | 976.8 |
| 20260901120239 | 70 | 359 | 0.0 | 0.0 | 0.00 | 0.03 | 0.00 | 100 | 976.8 |
| 20260901115602 | 70 | 359 | 0.0 | 0.0 | 0.00 | 0.03 | 0.00 | 100 | 976.6 |
| 20260901112927 | 69 | 359 | 0.0 | 0.0 | 0.00 | 0.03 | 0.00 | 100 | 976.4 |
| 20260901112245 | 69 | 359 | 0.0 | 0.0 | 0.00 | 0.03 | 0.00 | 100 | 976.4 |
| 20260901111609 | 69 | 359 | 0.0 | 0.0 | 0.00 | 0.03 | 0.00 | 100 | 976.2 |
| 20260901110252 | 69 | 359 | 0.0 | 0.0 | 0.00 | 0.03 | 0.00 | 100 | 976.1 |
| 20260901105611 | 69 | 359 | 0.0 | 0.0 | 0.00 | 0.03 | 0.00 | 100 | 976.0 |
| 20260901103721 | 68 | 359 | 0.0 | 0.0 | 0.00 | 0.03 | 0.00 | 100 | 976.0 |
| 20260901103617 | 68 | 359 | 0.0 | 0.0 | 0.00 | 0.03 | 0.00 | 100 | 976.0 |
| 20260901103023 | 68 | 359 | 0.0 | 0.0 | 0.00 | 0.03 | 0.00 | 100 | 976.0 |
| 20260901102936 | 68 | 359 | 0.0 | 0.0 | 0.00 | 0.03 | 0.00 | 100 | 976.0 |
| 20260901101756 | 68 | 359 | 0.0 | 0.0 | 0.00 | 0.03 | 0.00 | 100 | 976.0 |
| 20260901101619 | 68 | 359 | 0.0 | 0.0 | 0.00 | 0.03 | 0.00 | 100 | 976.0 |
| 20260901101100 | 68 | 359 | 0.0 | 0.0 | 0.00 | 0.03 | 0.00 | 100 | 976.0 |
| 20260901100942 | 68 | 359 | 0.0 | 0.0 | 0.00 | 0.03 | 0.00 | 100 | 976.0 |
| 20260901095728 | 68 | 359 | 0.0 | 0.0 | 0.00 | 0.03 | 0.00 | 100 | 976.0 |
| 20260901095624 | 68 | 359 | 0.0 | 0.0 | 0.00 | 0.03 | 0.00 | 100 | 976.0 |
| 20260901093804 | 69 | 359 | 0.0 | 0.0 | 0.00 | 0.03 | 0.00 | 100 | 976.0 |
| 20260901093626 | 69 | 359 | 0.0 | 0.0 | 0.00 | 0.03 | 0.00 | 100 | 976.0 |
| 20260901092949 | 69 | 359 | 0.0 | 0.0 | 0.00 | 0.03 | 0.00 | 100 | 975.9 |
| 20260901090513 | 69 | 359 | 0.0 | 0.0 | 0.00 | 0.03 | 0.00 | 100 | 975.9 |
| 20260901090314 | 69 | 359 | 0.0 | 0.0 | 0.00 | 0.03 | 0.00 | 100 | 975.9 |
| 20260901081004 | 69 | 359 | 0.0 | 0.0 | 0.00 | 0.03 | 0.00 | 100 | 975.7 |
| 20260901080450 | 69 | 359 | 0.0 | 0.0 | 0.00 | 0.03 | 0.00 | 100 | 975.7 |
| 20260901080323 | 69 | 359 | 0.0 | 0.0 | 0.00 | 0.03 | 0.00 | 100 | 975.7 |
| 20260901075945 | 69 | 359 | 0.0 | 0.0 | 0.00 | 0.03 | 0.00 | 100 | 975.7 |
| 20260901075646 | 69 | 359 | 0.0 | 0.0 | 0.00 | 0.03 | 0.00 | 100 | 975.7 |
| 20260901075116 | 69 | 359 | 0.0 | 0.0 | 0.00 | 0.03 | 0.00 | 100 | 975.8 |
| 20260901075005 | 69 | 359 | 0.0 | 0.0 | 0.00 | 0.03 | 0.00 | 100 | 975.8 |
| 20260901073836 | 69 | 359 | 0.0 | 0.0 | 0.00 | 0.03 | 0.00 | 100 | 975.7 |
| 20260901073648 | 69 | 359 | 0.0 | 0.0 | 0.00 | 0.03 | 0.00 | 100 | 975.7 |
| 20260901071140 | 70 | 359 | 0.0 | 0.0 | 0.00 | 0.03 | 0.00 | 100 | 975.6 |
| 20260901071013 | 70 | 359 | 0.0 | 0.0 | 0.00 | 0.03 | 0.00 | 100 | 975.6 |
| 20260901070500 | 70 | 359 | 0.0 | 0.0 | 0.00 | 0.03 | 0.00 | 100 | 975.7 |
| 20260901070336 | 70 | 359 | 0.0 | 0.0 | 0.00 | 0.03 | 0.00 | 100 | 975.7 |
| 20260901064443 | 70 | 359 | 0.0 | 0.0 | 0.00 | 0.03 | 0.00 | 100 | 975.6 |
| 20260901064337 | 70 | 359 | 0.0 | 0.0 | 0.00 | 0.03 | 0.00 | 100 | 975.6 |
| 20260901063821 | 70 | 359 | 0.0 | 0.0 | 0.00 | 0.03 | 0.00 | 100 | 975.7 |
| 20260901063700 | 70 | 359 | 0.0 | 0.0 | 0.00 | 0.03 | 0.00 | 100 | 975.7 |
| 20260901063020 | 70 | 359 | 0.0 | 0.0 | 0.00 | 0.03 | 0.00 | 100 | 975.7 |
| 20260901062533 | 70 | 359 | 0.0 | 0.0 | 0.00 | 0.03 | 0.00 | 100 | 975.8 |
| 20260901062343 | 70 | 359 | 0.0 | 0.0 | 0.00 | 0.03 | 0.00 | 100 | 975.8 |
| 20260901061247 | 70 | 359 | 0.0 | 0.0 | 0.00 | 0.03 | 0.00 | 100 | 975.8 |
| 20260901061025 | 70 | 359 | 0.0 | 0.0 | 0.00 | 0.03 | 0.00 | 100 | 975.8 |
| 20260901060602 | 70 | 359 | 0.0 | 0.0 | 0.00 | 0.03 | 0.00 | 100 | 975.8 |
| 20260901060344 | 70 | 359 | 0.0 | 0.0 | 0.00 | 0.03 | 0.00 | 100 | 975.8 |
| 20260901055919 | 70 | 359 | 0.0 | 0.0 | 0.00 | 0.03 | 0.00 | 100 | 975.9 |
| 20260901055823 | 70 | 359 | 0.0 | 0.0 | 0.00 | 0.03 | 0.00 | 100 | 975.9 |
| 20260901055707 | 70 | 359 | 0.0 | 0.0 | 0.00 | 0.03 | 0.00 | 100 | 975.9 |
| 20260901055138 | 71 | 359 | 0.0 | 0.0 | 0.00 | 0.03 | 0.00 | 100 | 975.8 |
| 20260901055027 | 71 | 359 | 0.0 | 0.0 | 0.00 | 0.03 | 0.00 | 100 | 975.8 |
| 20260901054555 | 71 | 359 | 0.0 | 0.0 | 0.00 | 0.03 | 0.00 | 100 | 976.0 |
| 20260901054350 | 71 | 359 | 0.0 | 0.0 | 0.00 | 0.03 | 0.00 | 100 | 976.0 |
| 20260901053827 | 71 | 359 | 0.0 | 0.0 | 0.00 | 0.03 | 0.00 | 100 | 975.9 |
| 20260901053709 | 71 | 359 | 0.0 | 0.0 | 0.00 | 0.03 | 0.00 | 100 | 975.9 |
| 20260901053211 | 70 | 359 | 0.0 | 0.0 | 0.00 | 0.03 | 0.00 | 100 | 975.9 |
| 20260901053032 | 70 | 359 | 0.0 | 0.0 | 0.00 | 0.03 | 0.00 | 100 | 975.9 |
| 20260901052557 | 71 | 359 | 0.0 | 0.0 | 0.00 | 0.03 | 0.00 | 100 | 976.0 |
| 20260901052352 | 71 | 359 | 0.0 | 0.0 | 0.00 | 0.03 | 0.00 | 100 | 976.0 |
| 20260901051822 | 71 | 359 | 0.0 | 0.0 | 0.00 | 0.03 | 0.00 | 100 | 975.9 |
| 20260901051714 | 71 | 359 | 0.0 | 0.0 | 0.00 | 0.03 | 0.00 | 100 | 975.9 |
| 20260901050357 | 71 | 359 | 0.0 | 0.0 | 0.00 | 0.03 | 0.00 | 100 | 975.9 |
| 20260901045907 | 71 | 359 | 0.0 | 0.0 | 0.00 | 0.03 | 0.00 | 100 | 975.9 |